• In Netherlands
  • List of Countries
  • For 7 days
  • Water Temperature
  • Satellite Maps
  • Weather Map
  • Weather Widgets
  • user-avatar
    Login

    Hourly Weather Pabna

    Today, 23 February, Thursday

    Time Temperature Precipitation Wind Pressure Humidity
    00:00 +26°C° 0 mm 3 mps 755 mmHg 73%
    01:00 +25°C° 0 mm 3 mps 755 mmHg 76%
    02:00 +25°C° 0 mm 3 mps 755 mmHg 79%
    03:00 +24°C° 0 mm 2 mps 755 mmHg 82%
    04:00 +24°C° 0 mm 2 mps 755 mmHg 81%
    05:00 +23°C° 0 mm 2 mps 755 mmHg 79%
    06:00 +23°C° 0 mm 2 mps 755 mmHg 78%
    07:00 +25°C° 0 mm 2 mps 756 mmHg 69%
    08:00 +26°C° 0 mm 2 mps 757 mmHg 60%
    09:00 +28°C° 0 mm 1 mps 757 mmHg 51%
    10:00 +30°C° 0 mm 1 mps 757 mmHg 42%
    11:00 +32°C° 0 mm 2 mps 757 mmHg 32%
    12:00 +35°C° 0 mm 2 mps 757 mmHg 22%
    13:00 +35°C° 0 mm 2 mps 756 mmHg 20%
    14:00 +36°C° 0 mm 3 mps 756 mmHg 19%
    15:00 +36°C° 0 mm 3 mps 755 mmHg 18%
    16:00 +35°C° 0 mm 3 mps 755 mmHg 20%
    17:00 +33°C° 0 mm 3 mps 755 mmHg 22%
    18:00 +30°C° 0 mm 2 mps 755 mmHg 24%
    19:00 +29°C° 0 mm 2 mps 755 mmHg 26%
    20:00 +28°C° 0 mm 3 mps 756 mmHg 27%
    21:00 +26°C° 0 mm 3 mps 756 mmHg 28%
    22:00 +25°C° 0 mm 3 mps 756 mmHg 30%
    23:00 +24°C° 0 mm 2 mps 757 mmHg 32%

    Tomorrow, 24 February, Friday

    Time Temperature Precipitation Wind Pressure Humidity
    00:00 +23°C° 0 mm 2 mps 757 mmHg 34%
    01:00 +23°C° 0 mm 2 mps 757 mmHg 33%
    02:00 +22°C° 0 mm 1 mps 757 mmHg 33%
    03:00 +21°C° 0 mm 1 mps 756 mmHg 33%
    04:00 +20°C° 0 mm 1 mps 757 mmHg 32%
    05:00 +20°C° 0 mm 1 mps 757 mmHg 31%
    06:00 +19°C° 0 mm 1 mps 757 mmHg 30%
    07:00 +22°C° 0 mm 1 mps 758 mmHg 26%
    08:00 +25°C° 0 mm 1 mps 758 mmHg 23%
    09:00 +27°C° 0 mm 2 mps 759 mmHg 19%
    10:00 +29°C° 0 mm 2 mps 759 mmHg 17%
    11:00 +31°C° 0 mm 3 mps 759 mmHg 15%
    12:00 +33°C° 0 mm 3 mps 758 mmHg 13%
    13:00 +34°C° 0 mm 4 mps 757 mmHg 12%
    14:00 +35°C° 0 mm 4 mps 757 mmHg 12%
    15:00 +35°C° 0 mm 5 mps 756 mmHg 11%
    16:00 +33°C° 0 mm 4 mps 756 mmHg 13%
    17:00 +30°C° 0 mm 3 mps 756 mmHg 16%
    18:00 +27°C° 0 mm 2 mps 755 mmHg 18%
    19:00 +26°C° 0 mm 2 mps 756 mmHg 18%
    20:00 +25°C° 0 mm 2 mps 757 mmHg 18%
    21:00 +24°C° 0 mm 2 mps 757 mmHg 18%
    22:00 +23°C° 0 mm 2 mps 757 mmHg 20%
    23:00 +23°C° 0 mm 2 mps 757 mmHg 21%

    Day after tomorrow, 25 February, Saturday

    Time Temperature Precipitation Wind Pressure Humidity
    00:00 +21°C° 0 mm 2 mps 757 mmHg 22%
    01:00 +20°C° 0 mm 2 mps 757 mmHg 24%
    02:00 +20°C° 0 mm 1 mps 757 mmHg 26%
    03:00 +19°C° 0 mm 1 mps 757 mmHg 29%
    04:00 +18°C° 0 mm 1 mps 757 mmHg 30%
    05:00 +18°C° 0 mm 1 mps 757 mmHg 32%
    06:00 +16°C° 0 mm 1 mps 757 mmHg 34%
    07:00 +20°C° 0 mm 1 mps 758 mmHg 29%
    08:00 +24°C° 0 mm 1 mps 759 mmHg 25%
    09:00 +27°C° 0 mm 1 mps 760 mmHg 20%
    10:00 +28°C° 0 mm 1 mps 759 mmHg 17%
    11:00 +30°C° 0 mm 1 mps 759 mmHg 14%
    12:00 +32°C° 0 mm 2 mps 758 mmHg 11%
    13:00 +32°C° 0 mm 2 mps 757 mmHg 11%
    14:00 +34°C° 0 mm 3 mps 756 mmHg 10%
    15:00 +34°C° 0 mm 3 mps 755 mmHg 9%
    16:00 +31°C° 0 mm 3 mps 755 mmHg 12%
    17:00 +29°C° 0 mm 2 mps 755 mmHg 14%
    18:00 +26°C° 0 mm 2 mps 755 mmHg 17%
    19:00 +25°C° 0 mm 1 mps 755 mmHg 18%
    20:00 +24°C° 0 mm 1 mps 756 mmHg 18%
    21:00 +22°C° 0 mm 1 mps 756 mmHg 19%
    22:00 +22°C° 0 mm 1 mps 756 mmHg 19%
    23:00 +21°C° 0 mm 1 mps 756 mmHg 19%

    26 February, Sunday

    Time Temperature Precipitation Wind Pressure Humidity
    00:00 +21°C° 0 mm 1 mps 756 mmHg 19%
    01:00 +20°C° 0 mm 1 mps 756 mmHg 21%
    02:00 +20°C° 0 mm 1 mps 755 mmHg 23%
    03:00 +19°C° 0 mm 1 mps 755 mmHg 24%
    04:00 +19°C° 0 mm 1 mps 755 mmHg 25%
    05:00 +18°C° 0 mm 2 mps 755 mmHg 27%
    06:00 +17°C° 0 mm 2 mps 756 mmHg 28%
    07:00 +20°C° 0 mm 2 mps 756 mmHg 25%
    08:00 +24°C° 0 mm 2 mps 757 mmHg 22%
    09:00 +27°C° 0 mm 2 mps 758 mmHg 19%
    10:00 +29°C° 0 mm 2 mps 758 mmHg 16%
    11:00 +31°C° 0 mm 2 mps 757 mmHg 13%
    12:00 +34°C° 0 mm 2 mps 757 mmHg 10%
    13:00 +35°C° 0 mm 3 mps 756 mmHg 10%
    14:00 +35°C° 0 mm 3 mps 755 mmHg 10%
    15:00 +36°C° 0 mm 4 mps 754 mmHg 9%
    16:00 +33°C° 0 mm 3 mps 754 mmHg 12%
    17:00 +30°C° 0 mm 2 mps 754 mmHg 16%
    18:00 +27°C° 0 mm 2 mps 754 mmHg 19%
    19:00 +26°C° 0 mm 1 mps 755 mmHg 20%
    20:00 +25°C° 0 mm 1 mps 755 mmHg 20%
    21:00 +23°C° 0 mm 1 mps 756 mmHg 21%
    22:00 +23°C° 0 mm 1 mps 756 mmHg 21%
    23:00 +23°C° 0 mm 1 mps 756 mmHg 21%

    27 February, Monday

    Time Temperature Precipitation Wind Pressure Humidity
    00:00 +21°C° 0 mm 2 mps 756 mmHg 22%
    01:00 +22°C° 0 mm 1 mps 756 mmHg 23%
    02:00 +21°C° 0 mm 1 mps 755 mmHg 24%
    03:00 +20°C° 0 mm 1 mps 755 mmHg 26%
    04:00 +20°C° 0 mm 1 mps 756 mmHg 27%
    05:00 +20°C° 0 mm 1 mps 756 mmHg 28%
    06:00 +19°C° 0 mm 1 mps 756 mmHg 29%
    07:00 +22°C° 0 mm 1 mps 757 mmHg 25%
    08:00 +25°C° 0 mm 1 mps 758 mmHg 22%
    09:00 +28°C° 0 mm 2 mps 758 mmHg 18%
    10:00 +30°C° 0 mm 2 mps 758 mmHg 17%
    11:00 +32°C° 0 mm 2 mps 758 mmHg 15%
    12:00 +35°C° 0 mm 3 mps 757 mmHg 13%
    13:00 +36°C° 0 mm 3 mps 757 mmHg 13%
    14:00 +37°C° 0 mm 4 mps 756 mmHg 12%
    15:00 +37°C° 0 mm 5 mps 755 mmHg 12%
    16:00 +35°C° 0 mm 4 mps 755 mmHg 15%
    17:00 +31°C° 0 mm 3 mps 755 mmHg 18%
    18:00 +29°C° 0 mm 2 mps 755 mmHg 21%
    19:00 +28°C° 0 mm 2 mps 755 mmHg 21%
    20:00 +27°C° 0 mm 2 mps 756 mmHg 22%
    21:00 +26°C° 0 mm 2 mps 756 mmHg 22%
    22:00 +25°C° 0 mm 2 mps 756 mmHg 23%
    23:00 +24°C° 0 mm 2 mps 756 mmHg 24%

    28 February, Tuesday

    Time Temperature Precipitation Wind Pressure Humidity
    00:00 +24°C° 0 mm 2 mps 756 mmHg 25%
    01:00 +23°C° 0 mm 1 mps 756 mmHg 27%
    02:00 +22°C° 0 mm 1 mps 756 mmHg 29%
    03:00 +19°C° 0 mm 0 mps 756 mmHg 31%
    04:00 +21°C° 0 mm 1 mps 756 mmHg 31%
    05:00 +21°C° 0 mm 1 mps 756 mmHg 30%
    06:00 +21°C° 0 mm 1 mps 757 mmHg 30%
    07:00 +24°C° 0 mm 1 mps 757 mmHg 26%
    08:00 +27°C° 0 mm 1 mps 758 mmHg 23%
    09:00 +30°C° 0 mm 1 mps 758 mmHg 19%
    10:00 +32°C° 0 mm 1 mps 758 mmHg 17%
    11:00 +35°C° 0 mm 2 mps 758 mmHg 16%
    12:00 +37°C° 0 mm 3 mps 757 mmHg 14%
    13:00 +38°C° 0 mm 3 mps 756 mmHg 13%
    14:00 +40°C° 0 mm 4 mps 755 mmHg 12%
    15:00 +40°C° 0 mm 5 mps 754 mmHg 11%
    16:00 +37°C° 0 mm 4 mps 754 mmHg 14%
    17:00 +34°C° 0 mm 3 mps 754 mmHg 17%
    18:00 +31°C° 0 mm 2 mps 754 mmHg 19%
    19:00 +30°C° 0 mm 2 mps 754 mmHg 20%
    20:00 +28°C° 0 mm 2 mps 755 mmHg 20%
    21:00 +27°C° 0 mm 2 mps 755 mmHg 21%
    22:00 +26°C° 0 mm 2 mps 755 mmHg 21%
    23:00 +26°C° 0 mm 2 mps 755 mmHg 22%
    Show more